Location: Davidschlag
(48.4333°N, 14.2833°E)
Time: 15:50:32
(UTC+00:00)

STARLINK-38 - Pass Details

Date: 27 February 2020
Orbit: 529 x 530 km, 53.0° (Epoch: 08 April)

Event Time Altitude Azimuth Distance (km) Brightness Sun altitude
Rises 17:55:17 0° 280° (W) 2,671 9.1 -12.8°
Reaches altitude 10° 17:57:35 10° 287° (WNW) 1,782 7.5 -13.2°
Maximum altitude 18:01:26 42° 359° (N) 767 4.3 -13.8°
Enters shadow 18:03:49 20° 61° (ENE) 1,257 4.9 -14.2°
